CW7959 Weather Reports


Display with metric or nautical units.
time (UTC)temp
F
wind
direction
speed
MPH
gust
MPH
rain 1hr
in
rain 24hr
in
rain mn
in
humidity
%
barometer
mb
20260508084903 49 211 0.0 5.0 0.00 0.07 0.01 86 1014.3
20260508084403 50 211 2.0 6.0 0.00 0.07 0.01 83 1014.2
20260508083403 51 210 4.0 10.0 0.00 0.07 0.01 80 1014.0
20260508082904 50 204 4.0 9.0 0.00 0.07 0.01 82 1013.9
20260508082404 50 194 5.0 9.0 0.00 0.07 0.01 82 1013.9
20260508081404 49 238 2.0 7.0 0.00 0.07 0.01 82 1013.8
20260508080904 49 240 2.0 7.0 0.00 0.07 0.01 83 1013.8
20260508075904 49 203 5.0 10.0 0.00 0.07 0.01 83 1013.7
20260508074902 49 212 3.0 8.0 0.00 0.07 0.01 85 1013.6
20260508074404 49 212 5.0 9.0 0.00 0.07 0.01 86 1013.6
20260508073402 48 214 6.0 10.0 0.00 0.07 0.01 87 1013.4
20260508072904 48 211 5.0 10.0 0.00 0.07 0.01 88 1013.4
20260508071904 48 214 4.0 8.0 0.01 0.07 0.01 89 1013.2
20260508071403 47 214 5.0 8.0 0.01 0.07 0.01 90 1013.2
20260508070903 47 215 3.0 7.0 0.01 0.07 0.01 90 1013.3
20260508070404 47 215 3.0 7.0 0.01 0.07 0.01 91 1013.2
20260508065903 47 215 5.0 8.0 0.01 0.07 0.01 91 1013.1
20260508065402 47 215 4.0 8.0 0.01 0.07 0.01 91 1013.1
20260508064903 47 215 3.0 9.0 0.01 0.07 0.01 91 1012.9
20260508064403 47 215 3.0 8.0 0.01 0.07 0.01 91 1013.0
20260508063403 47 217 2.0 6.0 0.01 0.07 0.01 92 1012.8
20260508062404 47 217 3.0 8.0 0.01 0.07 0.01 91 1012.7
20260508061903 47 215 5.0 10.0 0.00 0.06 0.00 91 1012.6
20260508061402 47 219 3.0 6.0 0.00 0.06 0.00 92 1012.6
20260508060903 47 219 1.0 5.0 0.00 0.06 0.00 92 1012.6
20260508060403 46 219 0.0 2.0 0.00 0.06 0.00 92 1012.5
20260508055403 46 219 2.0 8.0 0.00 0.06 0.00 92 1012.2
20260508054403 46 219 0.0 3.0 0.00 0.06 0.00 92 1012.1
20260508053903 46 219 1.0 7.0 0.00 0.06 0.00 92 1012.0
20260508053404 46 219 1.0 6.0 0.00 0.06 0.00 92 1012.0
20260508052404 46 219 1.0 3.0 0.00 0.06 0.00 92 1012.0
20260508051902 46 219 0.0 3.0 0.00 0.06 0.00 92 1012.0
20260508051402 46 219 0.0 0.0 0.00 0.06 0.00 92 1012.0
20260508050404 46 219 0.0 3.0 0.00 0.06 0.00 92 1011.9
20260508045903 46 219 0.0 0.0 0.00 0.06 0.00 92 1011.8
20260508045403 46 219 0.0 0.0 0.00 0.06 0.00 92 1011.7
20260508044904 46 219 0.0 3.0 0.00 0.06 0.00 92 1011.7
20260508043903 46 219 0.0 0.0 0.00 0.06 0.00 91 1011.6
20260508043403 46 219 0.0 0.0 0.00 0.06 0.00 91 1011.5
20260508042904 46 219 0.0 1.0 0.00 0.06 0.00 91 1011.5
20260508041902 46 219 0.0 0.0 0.00 0.06 0.00 91 1011.4
20260508041403 46 219 0.0 0.0 0.00 0.06 0.00 91 1011.3
20260508040903 46 219 0.0 0.0 0.00 0.06 0.00 91 1011.2
20260508040404 46 219 0.0 0.0 0.00 0.06 0.00 91 1011.2
20260508034904 47 219 0.0 1.0 0.00 0.06 0.00 91 1011.2
20260508034406 47 219 0.0 3.0 0.00 0.06 0.00 91 1011.1
20260508033903 47 219 2.0 6.0 0.00 0.06 0.00 91 1011.2
20260508033403 47 219 3.0 7.0 0.00 0.06 0.00 91 1010.9
20260508032903 47 219 2.0 8.0 0.00 0.06 0.00 91 1010.9
20260508032403 47 217 5.0 12.0 0.00 0.06 0.00 91 1010.8
20260508031903 47 214 0.0 3.0 0.00 0.06 0.00 92 1010.7
20260508031403 47 214 1.0 5.0 0.00 0.06 0.00 91 1010.8
20260508030903 46 214 0.0 7.0 0.00 0.06 0.00 91 1010.8
20260508030403 46 214 1.0 6.0 0.00 0.06 0.00 91 1010.8
20260508025903 46 214 1.0 3.0 0.00 0.06 0.00 91 1010.8
20260508025405 47 214 0.0 3.0 0.00 0.06 0.00 91 1010.8
20260508024903 47 214 0.0 3.0 0.00 0.06 0.00 91 1010.8
20260508024403 47 214 1.0 3.0 0.00 0.06 0.00 90 1010.7
20260508023903 47 214 0.0 2.0 0.00 0.06 0.00 91 1010.7
20260508023403 47 214 0.0 0.0 0.00 0.06 0.00 90 1010.6
20260508022903 47 214 0.0 2.0 0.00 0.06 0.00 90 1010.5
20260508021905 47 214 0.0 3.0 0.00 0.06 0.00 90 1010.5
20260508021404 47 214 1.0 8.0 0.00 0.06 0.00 90 1010.6
20260508020904 48 215 1.0 3.0 0.00 0.06 0.00 90 1010.6
20260508020403 48 215 1.0 9.0 0.00 0.06 0.00 90 1010.5
20260508015904 48 215 5.0 12.0 0.00 0.06 0.00 90 1010.5
20260508015403 47 215 4.0 8.0 0.00 0.06 0.00 90 1010.4
20260508014903 47 226 4.0 12.0 0.00 0.06 0.00 90 1010.4
20260508014404 47 219 3.0 8.0 0.00 0.06 0.00 90 1010.5
20260508013903 47 219 5.0 13.0 0.00 0.06 0.00 91 1010.4
20260508013403 47 220 3.0 10.0 0.00 0.06 0.00 91 1010.3
20260508012903 47 213 3.0 6.0 0.00 0.06 0.00 91 1010.3
20260508012403 48 213 1.0 7.0 0.00 0.06 0.00 91 1010.4
20260508010904 48 217 6.0 12.0 0.00 0.06 0.00 91 1010.2
20260508010404 47 211 5.0 8.0 0.00 0.06 0.00 92 1010.2
20260508005403 47 211 6.0 12.0 0.00 0.06 0.00 92 1010.3
20260508004903 47 209 5.0 12.0 0.00 0.06 0.00 92 1010.3
20260508004403 47 211 5.0 7.0 0.00 0.06 0.00 92 1010.3
20260508003905 47 211 3.0 8.0 0.00 0.06 0.00 93 1010.3
20260508002903 47 210 2.0 7.0 0.00 0.06 0.00 93 1010.3
20260508002404 47 210 3.0 7.0 0.00 0.06 0.00 93 1010.2
20260508001903 47 210 1.0 8.0 0.00 0.06 0.00 93 1010.3
20260508001403 47 209 4.0 10.0 0.00 0.06 0.00 93 1010.3
20260508000903 47 213 3.0 7.0 0.00 0.06 0.00 93 1010.2
20260508000405 47 213 6.0 12.0 0.00 0.06 0.00 93 1010.2
20260507235903 47 212 2.0 7.0 0.00 0.06 0.00 93 1010.1
20260507235404 47 212 1.0 5.0 0.01 0.06 0.00 93 1010.1
20260507234903 47 212 1.0 7.0 0.01 0.06 0.00 93 1010.1
20260507234404 47 212 1.0 8.0 0.01 0.06 0.00 93 1010.1
20260507232904 47 209 1.0 6.0 0.01 0.06 0.00 93 1010.0
20260507231404 47 209 2.0 7.0 0.01 0.06 0.00 93 1010.0
20260507230905 47 209 1.0 3.0 0.01 0.06 0.00 93 1010.0
20260507230404 47 209 0.0 2.0 0.02 0.06 0.00 93 1010.0
20260507225904 47 209 0.0 2.0 0.02 0.06 0.06 93 1010.0
20260507225405 47 209 0.0 1.0 0.03 0.06 0.06 93 1010.0
20260507224904 47 209 0.0 2.0 0.03 0.06 0.06 93 1009.9
20260507224404 47 209 0.0 3.0 0.03 0.06 0.06 93 1009.9
20260507223903 47 209 0.0 3.0 0.03 0.06 0.06 93 1010.0
20260507222903 47 209 0.0 3.0 0.04 0.06 0.06 92 1009.9
20260507222403 47 209 0.0 2.0 0.04 0.06 0.06 92 1009.9
20260507221904 48 209 1.0 3.0 0.04 0.06 0.06 92 1009.9
20260507221406 48 209 0.0 6.0 0.04 0.06 0.06 92 1009.9
20260507220904 48 209 4.0 7.0 0.04 0.06 0.06 92 1010.1
20260507215904 48 209 0.0 7.0 0.02 0.04 0.04 92 1009.9
20260507215404 48 209 2.0 5.0 0.02 0.03 0.03 92 1009.9
20260507214904 48 209 0.0 6.0 0.02 0.02 0.02 91 1009.8
20260507214404 48 209 1.0 6.0 0.02 0.02 0.02 91 1009.7
20260507213905 48 209 1.0 8.0 0.02 0.02 0.02 91 1009.8
20260507212905 48 209 0.0 3.0 0.01 0.02 0.02 91 1009.8
20260507212404 48 209 2.0 7.0 0.01 0.02 0.02 90 1009.8
20260507211904 48 209 1.0 5.0 0.01 0.02 0.02 90 1009.7
20260507211404 49 209 0.0 3.0 0.01 0.02 0.02 90 1009.7
20260507210904 49 209 0.0 2.0 0.01 0.02 0.02 90 1009.7
20260507210405 49 209 0.0 1.0 0.01 0.02 0.02 89 1009.7
20260507205905 49 209 1.0 6.0 0.01 0.02 0.02 89 1009.7
20260507205403 49 210 1.0 6.0 0.00 0.01 0.01 88 1009.7
20260507204905 49 210 4.0 7.0 0.00 0.01 0.01 87 1009.6
20260507203905 49 209 3.0 9.0 0.00 0.01 0.01 87 1009.4
20260507203404 49 214 5.0 12.0 0.00 0.01 0.01 87 1009.4
20260507202905 49 215 3.0 8.0 0.00 0.01 0.01 88 1009.4
20260507202404 49 217 4.0 8.0 0.00 0.01 0.01 88 1009.3
20260507201903 49 217 1.0 6.0 0.00 0.01 0.01 88 1009.3
20260507201404 49 217 2.0 6.0 0.00 0.01 0.01 88 1009.2
20260507200905 49 217 3.0 8.0 0.00 0.01 0.01 88 1009.3
20260507200405 49 218 3.0 12.0 0.00 0.01 0.01 88 1009.2
20260507195903 49 216 5.0 9.0 0.00 0.01 0.01 88 1009.2
20260507195403 49 214 5.0 12.0 0.00 0.01 0.01 87 1009.3
20260507194904 49 215 3.0 9.0 0.00 0.01 0.01 87 1009.3
20260507194405 49 207 3.0 14.0 0.00 0.01 0.01 87 1009.4
20260507192904 50 211 0.0 0.0 0.00 0.01 0.01 87 1009.1
20260507191904 50 211 0.0 5.0 0.00 0.01 0.01 86 1009.0
20260507191405 50 211 1.0 6.0 0.00 0.01 0.01 86 1009.1
20260507190403 50 211 2.0 5.0 0.01 0.01 0.01 86 1009.2
20260507185904 50 211 2.0 6.0 0.01 0.01 0.01 86 1009.1
20260507184405 50 215 3.0 10.0 0.01 0.01 0.01 86 1009.0
20260507183903 50 213 5.0 9.0 0.01 0.01 0.01 86 1009.0
20260507182903 50 213 5.0 9.0 0.01 0.01 0.01 86 1009.1
20260507182404 50 212 3.0 12.0 0.01 0.01 0.01 86 1009.1
20260507181903 50 208 6.0 10.0 0.01 0.01 0.01 86 1009.1
20260507181404 50 217 5.0 10.0 0.01 0.01 0.01 85 1009.1
20260507180903 51 211 1.0 10.0 0.00 0.00 0.00 84 1009.0
20260507175403 52 209 1.0 6.0 0.00 0.00 0.00 81 1008.8
20260507174904 53 209 0.0 3.0 0.00 0.00 0.00 78 1008.8
20260507174405 53 209 2.0 7.0 0.00 0.00 0.00 76 1008.8
20260507173904 53 209 5.0 7.0 0.00 0.00 0.00 75 1008.6
20260507173403 53 208 4.0 7.0 0.00 0.00 0.00 75 1008.7
20260507172903 53 208 5.0 7.0 0.00 0.00 0.00 74 1008.7
20260507172404 54 208 3.0 7.0 0.00 0.00 0.00 73 1008.7
20260507171904 54 208 4.0 7.0 0.00 0.00 0.00 72 1008.8
20260507171403 54 209 2.0 7.0 0.00 0.00 0.00 72 1008.7
20260507170904 54 209 2.0 7.0 0.00 0.00 0.00 71 1008.8
20260507170403 54 208 5.0 12.0 0.00 0.00 0.00 71 1008.7
20260507165903 54 211 5.0 12.0 0.00 0.00 0.00 74 1008.8
20260507165403 54 208 3.0 9.0 0.00 0.00 0.00 71 1008.8
20260507164903 55 221 4.0 10.0 0.00 0.00 0.00 71 1008.7
20260507164403 55 215 4.0 10.0 0.00 0.00 0.00 71 1008.7
20260507163905 55 245 4.0 10.0 0.00 0.00 0.00 71 1008.7
20260507163404 55 211 4.0 7.0 0.00 0.00 0.00 70 1008.7
20260507162904 55 213 4.0 12.0 0.00 0.00 0.00 69 1008.7
20260507161404 56 201 4.0 7.0 0.00 0.00 0.00 68 1008.7
20260507160904 56 207 3.0 8.0 0.00 0.00 0.00 67 1008.7
20260507160404 56 208 2.0 7.0 0.00 0.00 0.00 68 1008.6
20260507155904 56 207 5.0 7.0 0.00 0.00 0.00 68 1008.6
20260507155405 55 208 4.0 8.0 0.00 0.00 0.00 70 1008.6
20260507154903 55 207 4.0 8.0 0.00 0.00 0.00 69 1008.7
20260507154404 55 206 4.0 12.0 0.00 0.00 0.00 69 1008.6
20260507153904 55 210 3.0 8.0 0.00 0.00 0.00 70 1008.7
20260507153404 55 211 2.0 7.0 0.00 0.00 0.00 71 1008.7
20260507152904 55 211 4.0 8.0 0.00 0.00 0.00 69 1008.8
20260507152406 55 211 3.0 7.0 0.00 0.00 0.00 69 1008.8
20260507151904 54 211 2.0 7.0 0.00 0.00 0.00 71 1008.8
20260507150905 54 211 4.0 7.0 0.00 0.00 0.00 72 1009.0
20260507150404 54 210 4.0 7.0 0.00 0.00 0.00 72 1008.9
20260507145904 54 211 3.0 8.0 0.00 0.00 0.00 70 1008.9
20260507145404 54 211 5.0 8.0 0.00 0.00 0.00 70 1009.0
20260507144905 54 205 5.0 8.0 0.00 0.00 0.00 70 1009.0
20260507144405 54 205 4.0 8.0 0.00 0.00 0.00 69 1009.1
20260507143404 54 198 4.0 7.0 0.00 0.00 0.00 69 1009.1
20260507142904 55 198 4.0 9.0 0.00 0.00 0.00 69 1009.2
20260507141904 55 202 6.0 8.0 0.00 0.00 0.00 69 1009.3
20260507141404 55 202 4.0 8.0 0.00 0.00 0.00 70 1009.2
20260507140904 55 205 5.0 8.0 0.00 0.00 0.00 69 1009.4
20260507135904 55 209 5.0 8.0 0.00 0.00 0.00 67 1009.4
20260507135404 55 205 6.0 9.0 0.00 0.00 0.00 67 1009.4
20260507134905 55 209 5.0 7.0 0.00 0.00 0.00 68 1009.4
20260507134404 55 210 5.0 10.0 0.00 0.00 0.00 67 1009.4
20260507133905 55 204 5.0 8.0 0.00 0.00 0.00 67 1009.4
20260507133404 55 211 5.0 12.0 0.00 0.00 0.00 66 1009.4
20260507132906 55 208 5.0 8.0 0.00 0.00 0.00 67 1009.5
20260507132404 55 205 5.0 10.0 0.00 0.00 0.00 66 1009.5
20260507131906 55 208 5.0 9.0 0.00 0.00 0.00 65 1009.6
20260507131405 55 205 6.0 12.0 0.00 0.00 0.00 64 1009.5
20260507130904 55 213 6.0 12.0 0.00 0.00 0.00 63 1009.4
20260507130405 56 207 5.0 10.0 0.00 0.00 0.00 63 1009.5
20260507125904 56 214 6.0 10.0 0.00 0.00 0.00 63 1009.5
20260507125404 57 206 6.0 10.0 0.00 0.00 0.00 63 1009.5
20260507124904 57 210 6.0 12.0 0.00 0.00 0.00 64 1009.5
20260507124405 57 215 8.0 15.0 0.00 0.00 0.00 63 1009.5
20260507123903 57 213 7.0 15.0 0.00 0.00 0.00 62 1009.5
20260507123404 57 212 7.0 12.0 0.00 0.00 0.00 64 1009.5
20260507122904 56 214 6.0 15.0 0.00 0.00 0.00 64 1009.5
20260507122405 56 214 6.0 15.0 0.00 0.00 0.00 64 1009.5
20260507121904 57 211 6.0 12.0 0.00 0.00 0.00 64 1009.6
20260507121403 57 208 7.0 14.0 0.00 0.00 0.00 64 1009.6
20260507120904 56 215 6.0 13.0 0.00 0.00 0.00 65 1009.6
20260507120403 56 210 5.0 10.0 0.00 0.00 0.00 66 1009.6
20260507115904 55 209 6.0 12.0 0.00 0.00 0.00 68 1009.6
20260507114904 53 214 5.0 10.0 0.00 0.00 0.00 72 1009.6
20260507114403 52 211 6.0 12.0 0.00 0.00 0.00 72 1009.6
20260507113905 52 214 6.0 10.0 0.00 0.00 0.00 73 1009.6
20260507113403 53 209 5.0 9.0 0.00 0.00 0.00 75 1009.6
20260507112905 53 208 5.0 8.0 0.00 0.00 0.00 76 1009.6
20260507112404 52 207 3.0 9.0 0.00 0.00 0.00 77 1009.5
20260507111905 53 211 3.0 7.0 0.00 0.00 0.00 80 1009.4
20260507111403 52 210 2.0 8.0 0.00 0.00 0.00 81 1009.5
20260507110903 52 211 4.0 7.0 0.00 0.00 0.00 79 1009.4
20260507105904 52 211 1.0 3.0 0.00 0.00 0.00 80 1009.3
20260507105404 52 211 1.0 3.0 0.00 0.00 0.00 79 1009.4
20260507104903 52 211 1.0 6.0 0.00 0.00 0.00 79 1009.5
20260507104403 52 211 3.0 5.0 0.00 0.00 0.00 77 1009.7
20260507103903 52 211 1.0 6.0 0.00 0.00 0.00 77 1009.4
20260507102904 52 207 2.0 6.0 0.00 0.00 0.00 77 1009.6
20260507102403 52 207 2.0 6.0 0.00 0.00 0.00 77 1009.7
20260507101403 52 209 3.0 12.0 0.00 0.00 0.00 75 1009.6
20260507100904 52 204 2.0 10.0 0.00 0.00 0.00 76 1009.5
20260507100404 53 206 2.0 7.0 0.00 0.00 0.00 76 1009.4
20260507095904 53 206 3.0 10.0 0.00 0.00 0.00 77 1009.4
20260507095404 52 198 2.0 8.0 0.00 0.00 0.00 77 1009.4
20260507094904 52 202 4.0 13.0 0.00 0.00 0.00 78 1009.5
20260507094404 51 211 1.0 10.0 0.00 0.00 0.00 78 1009.5
20260507093903 51 211 2.0 7.0 0.00 0.00 0.00 77 1009.5
20260507093404 51 210 5.0 12.0 0.00 0.00 0.00 76 1009.6
20260507092903 51 200 4.0 13.0 0.00 0.00 0.00 76 1009.6
20260507092405 51 207 4.0 12.0 0.00 0.00 0.00 77 1009.7
20260507091904 51 221 4.0 10.0 0.00 0.00 0.00 77 1009.6
20260507091403 51 211 1.0 7.0 0.00 0.00 0.00 77 1009.6
20260507085904 52 213 5.0 10.0 0.00 0.00 0.00 73 1009.6
20260507085403 52 213 8.0 15.0 0.00 0.00 0.00 72 1009.6